This demonstration page uses our WeatherBlox Daily Observations layout. Learn more.

Left ArrowRight Arrow

40.92945, -100.16068

Hourly Observations for October 15, 2018

Temp ( °F °C ) Dew Point ( °F °C ) Humidity (%) Winds ( mph kmh ) Pressure ( in mb ) Visibility ( mi km ) Precip ( " mm )
12:15 am 00:15 Cloudy 31 -0.6 22 -5.7 69 69 NNW 7 11 30.48 1032 10 16.0934 0 0
12:35 am 00:35 Cloudy 31 -0.5 20 -6.4 65 65 NNW 14 22 30.48 1032 10 16.0934 0 0
12:55 am 00:55 Cloudy 31 -0.5 20 -6.5 64 64 NNW 10 17 30.48 1032 10 16.0934 0 0
1:15 am 01:15 Cloudy 31 -0.5 20 -6.6 64 64 NNW 12 19 30.48 1032 10 16.0934 0 0
1:35 am 01:35 Cloudy 31 -0.6 20 -6.4 65 65 NNW 6 9 30.48 1032 10 16.0934 0 0
1:55 am 01:55 Cloudy 31 -0.7 20 -6.4 66 66 N 8 13 30.48 1032 10 16.0934 0 0
2:15 am 02:15 Cloudy 30 -1.1 21 -6 70 70 Calm 30.48 1032 10 16.0934 0 0
2:35 am 02:35 Partly Cloudy 29 -1.7 21 -6.1 72 72 Calm 30.48 1032 10 16.0934 0 0
2:55 am 02:55 Clear 28 -2.5 21 -5.9 78 78 NW 6 9 30.5 1033 10 16.0934 0 0
3:15 am 03:15 Clear 26 -3.2 22 -5.7 83 83 WNW 8 13 30.5 1033 10 16.0934 0 0
3:35 am 03:35 Clear 25 -3.7 21 -6 84 84 WNW 7 11 30.5 1033 10 16.0934 0 0
3:55 am 03:55 Clear 25 -3.9 21 -6.1 85 85 WNW 7 11 30.5 1033 10 16.0934 0 0
4:15 am 04:15 Clear 25 -4 21 -6.2 85 85 WNW 8 13 30.5 1033 10 16.0934 0 0
4:35 am 04:35 Clear 25 -4 21 -6.2 85 85 WNW 7 11 30.5 1033 10 16.0934 0 0
4:55 am 04:55 Clear 24 -4.5 20 -6.5 86 86 WNW 7 11 30.5 1033 10 16.0934 0 0
5:15 am 05:15 Clear 23 -4.8 20 -6.7 87 87 NW 7 11 30.5 1033 10 16.0934 0 0
5:35 am 05:35 Clear 23 -5 20 -6.6 89 89 NW 6 9 30.53 1034 10 16.0934 0 0
5:55 am 05:55 Clear 22 -5.3 19 -7 88 88 NW 3 6 30.53 1034 10 16.0934 0 0
6:15 am 06:15 Clear 22 -5.8 19 -7.4 89 89 NW 5 7 30.53 1034 10 16.0934 0 0
6:35 am 06:35 Clear 22 -5.5 19 -7.1 89 89 Calm 30.53 1034 10 16.0934 0 0
6:55 am 06:55 Clear 21 -6.1 18 -7.6 89 89 W 3 6 30.53 1034 10 16.0934 0 0
7:15 am 07:15 Clear 21 -5.9 19 -7.4 89 89 WNW 6 9 30.53 1034 10 16.0934 0 0
7:35 am 07:35 Clear 21 -6 18 -7.6 89 89 WNW 6 9 30.53 1034 10 16.0934 0 0
7:55 am 07:55 Sunny 21 -6 18 -7.6 89 89 WNW 5 7 30.53 1034 10 16.0934 0 0
8:15 am 08:15 Sunny 22 -5.3 19 -7 88 88 WNW 5 7 30.53 1034 10 16.0934 0 0
8:35 am 08:35 Sunny 24 -4.6 20 -6.5 87 87 Calm 30.53 1034 10 16.0934 0 0
8:55 am 08:55 Sunny 26 -3.6 22 -5.8 85 85 WNW 6 9 30.53 1034 10 16.0934 0 0
9:15 am 09:15 Sunny 27 -2.7 22 -5.7 80 80 WNW 9 15 30.53 1034 10 16.0934 0 0
9:35 am 09:35 Sunny 28 -2.3 22 -5.6 78 78 WNW 9 15 30.53 1034 10 16.0934 0 0
9:55 am 09:55 Sunny 30 -1.3 23 -5.1 76 76 NW 9 15 30.5 1033 10 16.0934 0 0
10:15 am 10:15 Sunny 31 -0.7 22 -5.5 70 70 WNW 9 15 30.5 1033 10 16.0934 0 0
10:35 am 10:35 Sunny 32 -0.1 22 -5.3 68 68 WNW 8 13 30.5 1033 10 16.0934 0 0
10:55 am 10:55 Sunny 33 0.6 22 -5.4 65 65 WNW 9 15 30.5 1033 10 16.0934 0 0
11:15 am 11:15 Sunny 35 1.6 23 -5.2 61 61 W 10 17 30.48 1032 10 16.0934 0 0
11:35 am 11:35 Sunny 36 2.4 23 -5 59 59 W 9 15 30.48 1032 10 16.0934 0 0
11:55 am 11:55 Sunny 37 3 23 -5.1 56 56 W 12 19 30.48 1032 10 16.0934 0 0
12:15 pm 12:15 Sunny 39 3.7 23 -4.9 54 54 WNW 9 15 30.48 1032 10 16.0934 0 0
12:35 pm 12:35 Sunny 41 4.8 22 -5.6 47 47 W 9 15 30.45 1031 10 16.0934 0 0
12:55 pm 12:55 Sunny 42 5.5 22 -5.7 45 45 WNW 10 17 30.42 1030 10 16.0934 0 0
1:15 pm 13:15 Sunny 43 6.1 22 -5.7 43 43 WNW 14 22 30.42 1030 10 16.0934 0 0
1:35 pm 13:35 Sunny 44 6.4 22 -5.7 42 42 WNW 12 19 30.42 1030 10 16.0934 0 0
1:55 pm 13:55 Sunny 45 7 22 -5.3 42 42 W 15 24 30.39 1029 10 16.0934 0 0
2:15 pm 14:15 Sunny 45 7.4 23 -5 41 41 W 10 17 30.36 1028 10 16.0934 0 0
2:35 pm 14:35 Sunny 46 8 24 -4.7 41 41 WNW 14 22 30.36 1028 10 16.0934 0 0
2:55 pm 14:55 Sunny 47 8.4 23 -5 39 39 WNW 8 13 30.36 1028 10 16.0934 0 0
3:15 pm 15:15 Sunny 48 8.8 23 -5 38 38 W 9 15 30.33 1027 10 16.0934 0 0
3:35 pm 15:35 Sunny 49 9.4 25 -4.1 39 39 WNW 12 19 30.3 1026 10 16.0934 0 0
3:55 pm 15:55 Sunny 49 9.5 23 -5 36 36 NW 13 20 30.3 1026 10 16.0934 0 0
4:15 pm 16:15 Sunny 49 9.6 22 -5.4 35 35 WNW 12 19 30.3 1026 10 16.0934 0 0
4:35 pm 16:35 Sunny 50 9.9 24 -4.6 36 36 NW 10 17 30.27 1025 10 16.0934 0 0
4:55 pm 16:55 Sunny 50 9.9 23 -5 35 35 WNW 9 15 30.27 1025 10 16.0934 0 0
5:15 pm 17:15 Sunny 50 10 22 -5.3 34 34 WNW 10 17 30.27 1025 10 16.0934 0 0
5:35 pm 17:35 Sunny 50 10 22 -5.3 34 34 W 8 13 30.27 1025 10 16.0934 0 0
5:55 pm 17:55 Sunny 49 9.6 23 -4.8 36 36 W 10 17 30.27 1025 10 16.0934 0 0
6:15 pm 18:15 Sunny 48 9.1 24 -4.3 39 39 W 6 9 30.27 1025 10 16.0934 0 0
6:35 pm 18:35 Sunny 47 8.1 26 -3.6 44 44 W 6 9 30.3 1026 10 16.0934 0 0
6:55 pm 18:55 Sunny 44 6.7 25 -3.9 47 47 W 3 6 30.3 1026 10 16.0934 0 0
7:15 pm 19:15 Clear 42 5.6 25 -3.9 51 51 W 5 7 30.33 1027 10 16.0934 0 0
7:35 pm 19:35 Clear 38 3.3 26 -3.6 61 61 Calm 30.33 1027 10 16.0934 0 0
7:55 pm 19:55 Clear 40 4.2 25 -3.7 57 57 W 3 6 30.33 1027 10 16.0934 0 0
8:15 pm 20:15 Clear 37 3 25 -3.8 61 61 W 3 6 30.33 1027 10 16.0934 0 0
8:35 pm 20:35 Clear 34 1.1 26 -3.5 72 72 WSW 3 6 30.36 1028 10 16.0934 0 0
8:55 pm 20:55 Clear 36 2.1 24 -4.2 63 63 SW 7 11 30.36 1028 10 16.0934 0 0
9:15 pm 21:15 Clear 33 0.4 24 -4.2 72 72 SW 6 9 30.36 1028 10 16.0934 0 0
9:35 pm 21:35 Clear 35 1.4 24 -4.4 66 66 SW 6 9 30.36 1028 10 16.0934 0 0
9:55 pm 21:55 Clear 34 0.9 24 -4.5 68 68 SW 5 7 30.36 1028 10 16.0934 0 0
10:15 pm 22:15 Clear 33 0.3 24 -4.4 71 71 SW 7 11 30.33 1027 10 16.0934 0 0
10:35 pm 22:35 Clear 31 -0.3 24 -4.5 74 74 SSW 7 11 30.33 1027 10 16.0934 0 0
10:55 pm 22:55 Clear 32 0 24 -4.4 73 73 WSW 3 6 30.33 1027 10 16.0934 0 0
11:15 pm 23:15 Clear 32 -0.1 24 -4.3 74 74 WSW 3 6 30.33 1027 10 16.0934 0 0
11:35 pm 23:35 Clear 32 0.1 24 -4.4 72 72 WSW 3 6 30.36 1028 10 16.0934 0 0
11:55 pm 23:55 Clear 32 0 24 -4.3 73 73 W 5 7 30.33 1027 10 16.0934 0 0

Powered by AerisWeather